TimeEST,TemperatureF,Dew PointF,Humidity,Sea Level PressureIn,VisibilityMPH,Wind Direction,Wind SpeedMPH,Gust SpeedMPH,PrecipitationIn,Events,Conditions,WindDirDegrees,DateUTC
12:54 AM,30.9,25.0,79,30.38,-9999.0,Calm,Calm,-,N/A,,Unknown,0,2013-12-01 05:54:00
1:54 AM,30.0,23.0,75,30.37,-9999.0,Calm,Calm,-,N/A,,Unknown,0,2013-12-01 06:54:00
2:54 AM,30.0,23.0,75,30.35,-9999.0,Calm,Calm,-,N/A,,Unknown,0,2013-12-01 07:54:00
3:54 AM,28.0,23.0,81,30.31,-9999.0,Calm,Calm,-,N/A,,Unknown,0,2013-12-01 08:54:00
4:54 AM,24.1,21.0,88,30.29,-9999.0,Calm,Calm,-,N/A,,Unknown,0,2013-12-01 09:54:00
5:54 AM,24.1,19.9,84,30.28,-9999.0,Calm,Calm,-,N/A,,Unknown,0,2013-12-01 10:54:00
6:54 AM,21.9,19.9,92,30.28,-9999.0,Calm,Calm,-,N/A,,Unknown,0,2013-12-01 11:54:00
7:54 AM,24.1,21.0,88,30.27,-9999.0,Calm,Calm,-,N/A,,Unknown,0,2013-12-01 12:54:00
8:54 AM,28.0,24.1,85,30.25,-9999.0,Calm,Calm,-,N/A,,Unknown,0,2013-12-01 13:54:00
9:54 AM,32.0,26.1,79,30.24,-9999.0,Calm,Calm,-,N/A,,Unknown,0,2013-12-01 14:54:00
10:54 AM,37.0,28.0,70,30.20,-9999.0,Calm,Calm,-,N/A,,Unknown,0,2013-12-01 15:54:00
11:54 AM,42.1,28.0,58,30.16,-9999.0,Variable,3.5,-,N/A,,Unknown,0,2013-12-01 16:54:00
12:54 PM,44.1,28.9,55,30.13,-9999.0,Calm,Calm,-,N/A,,Unknown,0,2013-12-01 17:54:00
1:54 PM,46.0,27.0,47,30.10,-9999.0,WSW,3.5,-,N/A,,Unknown,240,2013-12-01 18:54:00
2:54 PM,45.0,26.1,48,30.09,-9999.0,Calm,Calm,-,N/A,,Unknown,0,2013-12-01 19:54:00
3:54 PM,43.0,27.0,53,30.09,-9999.0,Variable,4.6,-,N/A,,Unknown,0,2013-12-01 20:54:00
4:54 PM,39.9,27.0,60,30.09,-9999.0,Calm,Calm,-,N/A,,Unknown,0,2013-12-01 21:54:00
5:54 PM,37.9,28.9,70,30.09,-9999.0,Calm,Calm,-,N/A,,Unknown,0,2013-12-01 22:54:00
6:54 PM,37.0,28.9,73,30.09,-9999.0,Calm,Calm,-,N/A,,Unknown,0,2013-12-01 23:54:00
7:54 PM,35.1,28.9,78,30.08,-9999.0,Calm,Calm,-,N/A,,Unknown,0,2013-12-02 00:54:00
8:54 PM,32.0,27.0,82,30.07,-9999.0,Calm,Calm,-,N/A,,Unknown,0,2013-12-02 01:54:00
9:54 PM,30.0,27.0,88,30.06,-9999.0,Calm,Calm,-,N/A,,Unknown,0,2013-12-02 02:54:00
10:54 PM,28.9,27.0,92,30.05,-9999.0,Calm,Calm,-,N/A,,Unknown,0,2013-12-02 03:54:00
11:54 PM,28.9,27.0,92,30.03,-9999.0,Calm,Calm,-,N/A,,Unknown,0,2013-12-02 04:54:00